Tracking 35331 objects as of 15-Sep-2026
HD Live streaming from Space Station
objects crossing your sky now

ATLAS CENTAUR R/B

Track ATLAS CENTAUR R/B now!


NORAD ID: 8621
Int'l Code: 1976-010B
Launch date: January 29, 1976
Source: United States (US)
Launch site: AIR FORCE EASTERN TEST RANGE (AFETR)

Note: This is a ROCKET BODY
Your satellite tracking list
Your tracking list is empty




NASA's NSSDC Master Catalog

Two Line Element Set (TLE):
1 08621U 76010B   26257.18849725 -.00000075  00000-0  82402-3 0  9999
2 08621  21.4864  73.2682 7202431 306.2062 327.5413  2.20732163287525
Source of the keplerian elements: AFSPC